Location: Grasslands National Park East Block
(49.0708°N, 106.5295°W)
Time: 10:55:47
(UTC-06:00)

Vanguard 1 - Pass Details

Date: 23 September 2019
Orbit: 653 x 3830 km, 34.3° (Epoch: 14 October)

Event Time Altitude Azimuth Distance (km) Brightness Sun altitude
Rises 01:34:48 0° 217° (SW) 7,404 - -40.3°
Reaches altitude 10° 01:40:07 10° 210° (SSW) 6,646 - -40.1°
Maximum altitude 01:59:44 38° 152° (SSE) 4,900 - -39.2°
Exits shadow 01:59:59 38° 151° (SSE) 4,896 13.2 -39.2°
Drops below altitude 10° 02:17:18 10° 94° (E) 6,026 14.2 -38.1°
Sets 02:21:43 0° 87° (E) 6,685 14.6 -37.8°
